Location: *
(2.5500°S, 65.9667°W)
Time: 18:47:28
(UTC+00:00)

Altair - All Passes

Search period start: 19 April 2024 00:00
Search period end: 29 April 2024 00:00
Orbit: 1502 x 1682 km, 47.2° (Epoch: 18 April)

Date Brightness Start Highest point End Pass type
(mag) Time Alt. Az. Time Alt. Az. Time Alt. Az.
19 Apr - 06:44:24 10° N 06:50:40 20° NE 06:56:53 10° E visible
19 Apr - 08:46:04 10° NW 08:55:14 77° SW 09:04:27 10° SE visible
19 Apr - 10:56:07 10° WSW 11:00:20 14° SW 11:04:35 10° SSW daylight
19 Apr - 17:31:34 10° SSE 17:33:18 10° SE 17:35:00 10° SE daylight
19 Apr - 19:29:04 10° SSW 19:38:58 60° SE 19:48:54 10° NE daylight
19 Apr - 21:35:09 10° WSW 21:43:40 31° NW 21:52:12 10° N daylight
20 Apr - 06:19:48 10° N 06:25:26 17° NE 06:30:58 10° E visible
20 Apr - 08:20:51 10° NW 08:30:04 86° SW 08:39:17 10° SE visible
20 Apr - 10:29:54 10° W 10:35:01 16° SW 10:40:11 10° S daylight
20 Apr - 19:03:59 10° SSW 19:13:43 54° SE 19:23:30 10° NE daylight
20 Apr - 21:09:33 10° WSW 21:18:24 35° NW 21:27:17 10° NNE daylight
21 Apr - 05:55:23 10° NNE 06:00:10 15° NE 06:04:53 10° E visible
21 Apr - 07:55:39 10° NW 08:04:53 85° NE 08:14:06 10° SE visible
21 Apr - 10:03:54 10° W 10:09:43 18° SW 10:15:38 10° S visible
21 Apr - 18:38:56 10° SSW 18:48:28 48° SE 18:58:04 10° ENE daylight
21 Apr - 20:44:00 10° WSW 20:53:09 39° NW 21:02:21 10° NNE daylight
22 Apr - 05:31:13 10° NNE 05:34:53 13° NE 05:38:30 10° ENE visible
22 Apr - 07:30:30 10° NW 07:39:43 77° NE 07:48:53 10° SE visible
22 Apr - 09:38:01 10° W 09:44:27 21° SW 09:50:57 10° S visible
22 Apr - 18:13:55 10° SSW 18:23:13 43° SE 18:32:37 10° ENE daylight
22 Apr - 20:18:31 10° WSW 20:27:54 44° NW 20:37:22 10° NNE daylight
23 Apr - 05:07:46 10° NE 05:09:35 11° NE 05:11:23 10° ENE night (unlit)
23 Apr - 07:05:22 10° NNW 07:14:33 69° NE 07:23:39 10° SE visible
23 Apr - 09:12:15 10° W 09:19:11 24° SW 09:26:11 10° S visible
23 Apr - 17:48:56 10° SSW 17:57:57 38° SE 18:07:05 10° ENE daylight
23 Apr - 19:53:05 10° WSW 20:02:39 49° NW 20:12:20 10° NNE daylight
24 Apr - 06:40:16 10° NNW 06:49:23 61° NE 06:58:22 10° SE visible
24 Apr - 08:46:34 10° WNW 08:53:56 27° SW 09:01:23 10° S visible
24 Apr - 17:23:59 10° SSW 17:32:41 34° SE 17:41:29 10° ENE daylight
24 Apr - 19:27:41 10° SW 19:37:25 55° NW 19:47:16 10° NNE daylight
25 Apr - 06:15:12 10° NNW 06:24:12 54° NE 06:33:04 10° SE visible
25 Apr - 08:20:57 10° WNW 08:28:42 31° SW 08:36:30 10° S visible
25 Apr - 16:59:04 10° S 17:07:25 30° SE 17:15:51 10° ENE daylight
25 Apr - 19:02:20 10° SW 19:12:11 62° NW 19:22:10 10° NNE daylight
25 Apr - 21:17:20 10° NW 21:17:31 10° NW 21:17:43 10° NW daylight
26 Apr - 05:50:10 10° NNW 05:59:01 48° NE 06:07:43 10° ESE visible
26 Apr - 07:55:23 10° WNW 08:03:29 35° SW 08:11:36 10° SSE visible
26 Apr - 16:34:13 10° S 16:42:08 27° SE 16:50:08 10° E daylight
26 Apr - 18:37:01 10° SW 18:46:57 69° NW 18:57:02 10° NNE daylight
26 Apr - 20:48:42 10° WNW 20:52:09 12° NW 20:55:38 10° NNW daylight
27 Apr - 05:25:09 10° NNW 05:33:50 43° NE 05:42:20 10° ESE night (unlit)
27 Apr - 07:29:54 10° WNW 07:38:16 39° SW 07:46:39 10° SSE visible
27 Apr - 16:09:25 10° S 16:16:49 24° SE 16:24:21 10° E daylight
27 Apr - 18:11:45 10° SW 18:21:43 76° NW 18:31:52 10° NE daylight
27 Apr - 20:22:01 10° WNW 20:26:49 14° NW 20:31:39 10° NNW daylight
28 Apr - 05:00:11 10° NNW 05:08:38 38° NE 05:16:54 10° ESE night (unlit)
28 Apr - 07:04:26 10° WNW 07:13:05 44° SW 07:21:41 10° SSE visible
28 Apr - 15:44:41 10° S 15:51:31 21° SE 15:58:27 10° E daylight
28 Apr - 17:46:30 10° SW 17:56:29 84° NW 18:06:40 10° NE daylight
28 Apr - 19:55:44 10° W 20:01:29 17° NW 20:07:18 10° NNW daylight
